AirNav   Air Wisconsin pilot careers
 
 966 users online  

82IS Landings Condominium Airport
Huntley, Illinois, USA

GOING TO HUNTLEY?


FAA INFORMATION EFFECTIVE 01 FEBRUARY 2018

Location

FAA Identifier: 82IS
Lat/Long: 42-08-35.6650N / 088-24-11.9250W
42-08.594417N / 088-24.198750W
42.1432403 / -88.4033125
(estimated)
Elevation: 888 ft. / 271 m (estimated)
Variation: 00E (1980)
From city: 2 miles SE of HUNTLEY, IL
Time zone: UTC -6 (UTC -5 during Daylight Saving Time)
Zip code: 60142

Airport Operations

Airport use: Private use. Permission required prior to landing
Activation date: 09/1973
Control tower: no
ARTCC: CHICAGO CENTER
FSS: KANKAKEE FLIGHT SERVICE STATION
NOTAMs facility: FDC (NOTAM-D service not available)
Attendance: 1000-1800
Wind indicator: yes
Segmented circle: yes
Lights: ACTVT MIRL RY 13/31; PAPI RWY 31 - 122.9.
Beacon: white-green (lighted land airport)
Operates sunset to sunrise.

Airport Communications

WX ASOS at DPA (16 nm SE): PHONE 630-584-2728
WX AWOS-3 at 06C (16 nm SE): 128.275 ((847) 895-2887)
WX AWOS-3 at DKB (18 nm SW): 119.075 (815-748-2350)

Nearby radio navigation aids

VOR radial/distance  VOR name  Freq  Var
DPAr349/15.4DUPAGE VOR/DME108.4002E
OBKr259/20.6NORTHBROOK VOR/DME113.0002W
ORDr291/24.1CHICAGO O'HARE VOR/DME113.9002E
BUUr189/33.1BURBUN VOR/DME114.5001W
RFDr097/35.7ROCKFORD VOR/DME110.8001E
JOTr352/36.0JOLIET VORTAC112.3002E
JVLr126/39.9JANESVILLE VOR/DME114.3003E

 
NDB name  Hdg/Dist  Freq  Var  ID
LAKE LAWN168/34.440402WLVV .-.. ...- ...-

Airport Services

Airframe service: NONE
Powerplant service: NONE

Runway Information

Runway 13/31

Dimensions: 3141 x 50 ft. / 957 x 15 m
Surface: asphalt
Runway edge lights: medium intensity
RUNWAY 13  RUNWAY 31
Latitude: 42-08.769167N42-08.419667N
Longitude: 088-24.454833W088-23.942667W
Elevation: 881.0 ft.888.0 ft.
Traffic pattern: leftright
Displaced threshold: no394 ft.
Visual slope indicator: 2-light PAPI on right (4.00 degrees glide path)
Runway end identifier lights: no
Touchdown point: yes, no lightsyes, no lights
Obstructions: nonerr

Airport Ownership and Management from official FAA records

Ownership: Privately-owned
Owner: LANDINGS CONDO OWNERS ASSOC
BOX 0697
HUNTLEY, IL 60142
Phone 847-669-3515
Manager: LACOA BOARD OF DIRECTORS
BOX 0697
HUNTLEY, IL 60142
Phone 847-669-3515

Airport Operational Statistics

Aircraft based on the field: 112
Single engine airplanes: 96
Multi engine airplanes: 12
Helicopters: 4
    

Instrument Procedures

There are no published instrument procedures at 82IS.

Some nearby airports with instrument procedures:

3CK - Lake in the Hills Airport (5 nm NE)
10C - Galt Field Airport (16 nm N)
KDPA - DuPage Airport (16 nm SE)
C81 - Campbell Airport (18 nm NE)
KDKB - De Kalb Taylor Municipal Airport (18 nm SW)
 
Loc | Ops | Rwys | IFR | FBO | Links
Com | Nav | Svcs | Stats | Notes

AirNav Hotels Sweepstakes
 
Area around 82IS (Landings Condominium Airport)
 
Road maps at: MapQuest Bing Google
 
Aerial photo
WARNING: Photo may not be current or correct
Aerial photo of 82IS (Landings Condominium Airport)
Photo taken 05-Sep-2006

Do you have a better or more recent aerial photo of Landings Condominium Airport that you would like to share? If so, please send us your photo.

 
Sectional chart

 
Airport distance calculator
Flying to Landings Condominium Airport? Find the distance to fly.

From to 82IS

Sunrise and sunset
Times for 22-Feb-2018
 Local
(UTC-6)
 Zulu
(UTC)
Morning civil twilight06:1212:12
Sunrise06:4112:41
Sunset17:3423:34
Evening civil twilight18:0200:02

Current date and time
Zulu (UTC)  23-Feb-2018 02:50:15
Local (UTC-6)  22-Feb-2018 20:50:15
 
METAR
KDPA 
15nm SE 
230231Z 08009KT 8SM BKN013 OVC019 04/01 A3032 RMK AO2 T00390011
K06C 
16nm SE 
230235Z AUTO 10007G15KT 10SM OVC013 04/01 A3033 RMK AO2 T00350005
KDKB 
18nm SW 
230235Z AUTO 09012KT 10SM OVC010 02/00 A3031 RMK AO2 T00210002
KPWK 
22nm E 
230152Z 10008G17KT 10SM OVC020 04/00 A3038 RMK AO2 PRESFR SLP292 T00390000
KARR 
23nm S 
230152Z AUTO 09012KT 10SM OVC015 04/01 A3032 RMK AO2 SLP275 T00390006
KORD 
23nm SE 
230151Z 10013G18KT 10SM OVC019 04/00 A3035 RMK AO2 PRESFR SLP284 T00440000
KUGN 
29nm NE 
230155Z 08011KT 10SM OVC022 02/00 A3037 RMK AO2 SLP297 LAST T00220000
TAF
KDPA 
15nm SE 
222040Z 2221/2318 06013KT P6SM BKN025 OVC040 FM222300 07013KT P6SM BKN015 OVC025 FM230300 12012KT P6SM VCSH OVC008 FM230700 15009KT 4SM -RA BR BKN004 OVC008 FM231300 20007KT 5SM BR OVC008 FM231600 23011KT P6SM OVC015
NOTAMs
Click for the latest NOTAMs
NOTAMs are issued by the DoD/FAA and will open in a separate window not controlled by AirNav.

 

 
 

Would you like to see your business listed on this page?

 If your business provides an interesting product or service to pilots, flight crews, aircraft, or users of the Landings Condominium Airport, you should consider listing it here.  To start the listing process, click on the button below
 
Add a business
 

Other Pages about Landings Condominium Airport

Update a link
 
Copyright © AirNav, LLC. All rights reserved. Privacy Policy  Contact